• In Czech Republic
  • List of Countries
  • For 7 days
  • Water Temperature
  • Satellite Maps
  • Weather Map
  • Weather Widgets
  • user-avatar
    Login

    Hourly Weather Zasuv

    Today, 24 May, Thursday

    Time Temperature Precipitation Wind Pressure Humidity
    00:00 +18°C° 0 mm 1 mps 742 mmHg 86%
    01:00 +16°C° 0 mm 1 mps 742 mmHg 87%
    02:00 +15°C° 0 mm 1 mps 742 mmHg 89%
    03:00 +15°C° 0 mm 1 mps 742 mmHg 90%
    04:00 +15°C° 0 mm 2 mps 742 mmHg 91%
    05:00 +15°C° 0 mm 2 mps 742 mmHg 92%
    06:00 +16°C° 0.1 mm 2 mps 742 mmHg 90%
    07:00 +17°C° 0.1 mm 3 mps 742 mmHg 88%
    08:00 +19°C° 0 mm 3 mps 743 mmHg 85%
    09:00 +20°C° 0.9 mm 4 mps 743 mmHg 80%
    10:00 +21°C° 0.9 mm 4 mps 743 mmHg 76%
    11:00 +22°C° 0.9 mm 4 mps 743 mmHg 71%
    12:00 +22°C° 1 mm 4 mps 742 mmHg 70%
    13:00 +22°C° 1 mm 4 mps 742 mmHg 68%
    14:00 +23°C° 1 mm 4 mps 742 mmHg 66%
    15:00 +23°C° 0.7 mm 4 mps 742 mmHg 66%
    16:00 +22°C° 0.7 mm 4 mps 742 mmHg 67%
    17:00 +22°C° 0.7 mm 4 mps 741 mmHg 67%
    18:00 +21°C° 0.2 mm 3 mps 741 mmHg 71%
    19:00 +19°C° 0.2 mm 3 mps 741 mmHg 76%
    20:00 +18°C° 0.2 mm 2 mps 741 mmHg 80%
    21:00 +17°C° 0 mm 2 mps 741 mmHg 82%
    22:00 +16°C° 0 mm 2 mps 741 mmHg 83%
    23:00 +15°C° 0 mm 2 mps 741 mmHg 85%

    Tomorrow, 25 May, Friday

    Time Temperature Precipitation Wind Pressure Humidity
    00:00 +14°C° 0 mm 2 mps 741 mmHg 87%
    01:00 +14°C° 0 mm 2 mps 741 mmHg 89%
    02:00 +13°C° 0 mm 2 mps 741 mmHg 91%
    03:00 +13°C° 0 mm 2 mps 741 mmHg 92%
    04:00 +13°C° 0 mm 2 mps 741 mmHg 93%
    05:00 +13°C° 0 mm 2 mps 741 mmHg 93%
    06:00 +15°C° 0 mm 2 mps 741 mmHg 89%
    07:00 +16°C° 0 mm 2 mps 742 mmHg 84%
    08:00 +18°C° 0 mm 2 mps 742 mmHg 80%
    09:00 +20°C° 0.2 mm 3 mps 742 mmHg 75%
    10:00 +21°C° 0.2 mm 3 mps 742 mmHg 71%
    11:00 +24°C° 0.2 mm 3 mps 742 mmHg 66%
    12:00 +24°C° 0.7 mm 3 mps 742 mmHg 66%
    13:00 +23°C° 0.7 mm 4 mps 742 mmHg 66%
    14:00 +25°C° 0.7 mm 4 mps 742 mmHg 66%
    15:00 +24°C° 0.4 mm 3 mps 742 mmHg 69%
    16:00 +24°C° 0.4 mm 3 mps 742 mmHg 72%
    17:00 +24°C° 0.4 mm 2 mps 742 mmHg 75%
    18:00 +21°C° 0.1 mm 2 mps 742 mmHg 79%
    19:00 +20°C° 0.1 mm 3 mps 743 mmHg 82%
    20:00 +19°C° 0.1 mm 3 mps 743 mmHg 86%
    21:00 +18°C° 0 mm 3 mps 743 mmHg 88%
    22:00 +18°C° 0 mm 3 mps 743 mmHg 90%
    23:00 +17°C° 0 mm 3 mps 744 mmHg 91%

    Day after tomorrow, 26 May, Saturday

    Time Temperature Precipitation Wind Pressure Humidity
    00:00 +17°C° 0 mm 3 mps 744 mmHg 92%
    01:00 +16°C° 0 mm 3 mps 744 mmHg 92%
    02:00 +16°C° 0 mm 3 mps 744 mmHg 93%
    03:00 +16°C° 0 mm 3 mps 744 mmHg 93%
    04:00 +14°C° 0 mm 3 mps 745 mmHg 93%
    05:00 +14°C° 0 mm 4 mps 745 mmHg 93%
    06:00 +15°C° 0 mm 4 mps 745 mmHg 90%
    07:00 +17°C° 0 mm 4 mps 745 mmHg 88%
    08:00 +18°C° 0 mm 4 mps 746 mmHg 85%
    09:00 +19°C° 0 mm 5 mps 746 mmHg 79%
    10:00 +21°C° 0 mm 5 mps 746 mmHg 73%
    11:00 +22°C° 0 mm 5 mps 746 mmHg 68%
    12:00 +22°C° 0 mm 5 mps 746 mmHg 66%
    13:00 +22°C° 0 mm 5 mps 746 mmHg 64%
    14:00 +23°C° 0 mm 5 mps 745 mmHg 62%
    15:00 +22°C° 0 mm 5 mps 745 mmHg 63%
    16:00 +22°C° 0 mm 5 mps 745 mmHg 64%
    17:00 +21°C° 0 mm 5 mps 745 mmHg 65%
    18:00 +20°C° 0 mm 5 mps 745 mmHg 71%
    19:00 +17°C° 0 mm 5 mps 745 mmHg 76%
    20:00 +17°C° 0 mm 4 mps 745 mmHg 82%
    21:00 +15°C° 0 mm 4 mps 745 mmHg 84%
    22:00 +14°C° 0 mm 4 mps 745 mmHg 85%
    23:00 +13°C° 0 mm 4 mps 745 mmHg 87%

    27 May, Sunday

    Time Temperature Precipitation Wind Pressure Humidity
    00:00 +12°C° 0 mm 4 mps 745 mmHg 87%
    01:00 +12°C° 0 mm 4 mps 745 mmHg 88%
    02:00 +11°C° 0 mm 4 mps 745 mmHg 88%
    03:00 +11°C° 0 mm 4 mps 745 mmHg 87%
    04:00 +10°C° 0 mm 4 mps 745 mmHg 87%
    05:00 +10°C° 0 mm 3 mps 745 mmHg 86%
    06:00 +11°C° 0 mm 4 mps 745 mmHg 83%
    07:00 +13°C° 0 mm 4 mps 745 mmHg 79%
    08:00 +14°C° 0 mm 5 mps 745 mmHg 75%
    09:00 +16°C° 0 mm 5 mps 745 mmHg 73%
    10:00 +17°C° 0 mm 5 mps 745 mmHg 71%
    11:00 +20°C° 0 mm 5 mps 745 mmHg 69%
    12:00 +20°C° 0 mm 5 mps 745 mmHg 69%
    13:00 +21°C° 0 mm 5 mps 745 mmHg 69%
    14:00 +21°C° 0 mm 4 mps 745 mmHg 69%
    15:00 +21°C° 0 mm 4 mps 745 mmHg 69%
    16:00 +21°C° 0 mm 4 mps 744 mmHg 70%
    17:00 +21°C° 0 mm 4 mps 744 mmHg 71%
    18:00 +20°C° 0 mm 4 mps 744 mmHg 76%
    19:00 +19°C° 0 mm 3 mps 744 mmHg 82%
    20:00 +17°C° 0 mm 3 mps 744 mmHg 88%
    21:00 +17°C° 0 mm 3 mps 745 mmHg 90%
    22:00 +16°C° 0 mm 3 mps 745 mmHg 91%
    23:00 +14°C° 0 mm 3 mps 745 mmHg 93%

    28 May, Monday

    Time Temperature Precipitation Wind Pressure Humidity
    00:00 +13°C° 0 mm 3 mps 745 mmHg 93%
    01:00 +13°C° 0 mm 3 mps 745 mmHg 93%
    02:00 +12°C° 0 mm 3 mps 745 mmHg 93%
    03:00 +12°C° 0 mm 3 mps 745 mmHg 92%
    04:00 +12°C° 0 mm 3 mps 745 mmHg 92%
    05:00 +12°C° 0 mm 3 mps 746 mmHg 91%
    06:00 +13°C° 0 mm 3 mps 746 mmHg 86%
    07:00 +15°C° 0 mm 4 mps 746 mmHg 80%
    08:00 +17°C° 0 mm 4 mps 746 mmHg 74%
    09:00 +19°C° 0 mm 4 mps 747 mmHg 70%
    10:00 +20°C° 0 mm 4 mps 747 mmHg 67%
    11:00 +21°C° 0 mm 4 mps 747 mmHg 63%
    12:00 +21°C° 0 mm 4 mps 747 mmHg 62%
    13:00 +22°C° 0 mm 4 mps 747 mmHg 61%
    14:00 +22°C° 0 mm 4 mps 747 mmHg 59%
    15:00 +22°C° 0 mm 4 mps 747 mmHg 61%
    16:00 +22°C° 0 mm 4 mps 746 mmHg 62%
    17:00 +22°C° 0 mm 5 mps 746 mmHg 63%
    18:00 +20°C° 0 mm 4 mps 746 mmHg 68%
    19:00 +19°C° 0 mm 4 mps 747 mmHg 73%
    20:00 +17°C° 0 mm 3 mps 747 mmHg 79%
    21:00 +16°C° 0 mm 3 mps 747 mmHg 80%
    22:00 +14°C° 0 mm 3 mps 747 mmHg 81%
    23:00 +13°C° 0 mm 3 mps 747 mmHg 82%

    29 May, Tuesday

    Time Temperature Precipitation Wind Pressure Humidity
    00:00 +13°C° 0 mm 3 mps 747 mmHg 84%
    01:00 +12°C° 0 mm 3 mps 747 mmHg 86%
    02:00 +12°C° 0 mm 3 mps 747 mmHg 87%
    03:00 +11°C° 0 mm 3 mps 748 mmHg 88%
    04:00 +11°C° 0 mm 3 mps 748 mmHg 89%
    05:00 +11°C° 0 mm 3 mps 748 mmHg 90%
    06:00 +13°C° 0 mm 4 mps 748 mmHg 85%
    07:00 +15°C° 0 mm 4 mps 748 mmHg 79%
    08:00 +17°C° 0 mm 5 mps 748 mmHg 73%
    09:00 +19°C° 0 mm 5 mps 748 mmHg 69%
    10:00 +20°C° 0 mm 5 mps 748 mmHg 65%
    11:00 +21°C° 0 mm 6 mps 748 mmHg 61%
    12:00 +22°C° 0 mm 6 mps 748 mmHg 59%
    13:00 +23°C° 0 mm 6 mps 748 mmHg 58%
    14:00 +23°C° 0 mm 6 mps 747 mmHg 57%
    15:00 +23°C° 0 mm 5 mps 747 mmHg 59%
    16:00 +23°C° 0 mm 5 mps 747 mmHg 61%
    17:00 +23°C° 0 mm 5 mps 746 mmHg 63%
    18:00 +22°C° 0 mm 4 mps 746 mmHg 69%
    19:00 +20°C° 0 mm 4 mps 746 mmHg 75%
    20:00 +19°C° 0 mm 3 mps 746 mmHg 81%
    21:00 +18°C° 0 mm 3 mps 746 mmHg 84%
    22:00 +17°C° 0 mm 3 mps 746 mmHg 86%
    23:00 +17°C° 0 mm 4 mps 746 mmHg 89%
    Show more